Back to catalog

FREGAT DEB

LostUNKNOWN
NORAD 45646·DEBRIS·🇷🇺 Russia

Launched Jul 18, 2011 from Baikonur Cosmodrome

Loading…

Next Passes (next 24 hours)

TLE

StaleSource: Space-Track

Epoch: Jun 25, 2020, 16:30 UTC

1 45646U 11037AN  20177.68769722  .00113570  00000-0  72266-1 0  9992
2 45646  51.2371 324.7767 1508996  94.1129 283.2277 11.71807274  3233

Track FREGAT DEB in real time with AllMySat

Download on the App Store